sat.trackr.live / text

‹ back to catalog

STARLINK-3965

NORAD 52550 · 2022-051T

PAYLOAD ACTIVE UNKNOWN

§ Identity

Operator
Country
US
Launch date
2022-05-13
Launch site
AFWTR
Launch vehicle
Mass (kg)
RCS (m²)

Purposes: comms

External: N2YO · Heavens-Above · Gunter

§ Orbital elements

Epoch: 2026-05-25T00:58:39.948960Z

Period
95.44 min
Inclination
53.2127°
Eccentricity
0.0001240
Mean motion
15.08836420 rev/d
Perigee alt
538.9 km
Apogee alt
540.6 km
Semi-major
6,917.9 km
B*
-1.8121e-4
RAAN
146.3675°
Arg perigee
99.0793°
Mean anomaly
261.0339°
Rev number
22,297

§ Raw data

STARLINK-39651 52550U 22051T   26145.04074015 -.00003170  00000+0 -18121-3 0  99942 52550  53.2127 146.3675 0001240  99.0793 261.0339 15.08836420222978

JSON: /api/v1/satellites/52550 · /tle

For live sub-satellite position, see the globe view (requires WebGL).

§ Visibility from observer

Set your observer location to see the next 7 days of passes ≥ 10°. The values pass through the URL so the page stays shareable.

No JS? Fill the form by hand. The geolocation button needs JavaScript.